| time (UTC) | temp C | wind direction | speed KPH | gust KPH | rain 1hr cm | rain 24hr cm | rain mn cm | humidity % | barometer mb |
| 20260906090552 | 30 | 185 | 4.8 | 9.7 | 0.00 | 0.00 | 0.00 | 49 | 1015.7 |
| 20260906090031 | 30 | 209 | 6.4 | 9.7 | 0.00 | 0.00 | 0.00 | 48 | 1015.7 |
| 20260906085539 | 30 | 188 | 4.8 | 9.7 | 0.00 | 0.00 | 0.00 | 51 | 1015.8 |
| 20260906085031 | 30 | 194 | 1.6 | 9.7 | 0.00 | 0.00 | 0.00 | 51 | 1015.8 |
| 20260906084542 | 30 | 184 | 6.4 | 9.7 | 0.00 | 0.00 | 0.00 | 51 | 1015.8 |
| 20260906084027 | 30 | 209 | 4.8 | 8.0 | 0.00 | 0.00 | 0.00 | 51 | 1015.9 |
| 20260906083539 | 30 | 161 | 4.8 | 8.0 | 0.00 | 0.00 | 0.00 | 51 | 1015.8 |
| 20260906083043 | 29 | 148 | 1.6 | 9.7 | 0.00 | 0.00 | 0.00 | 53 | 1015.9 |
| 20260906082532 | 28 | 168 | 4.8 | 11.3 | 0.00 | 0.00 | 0.00 | 55 | 1015.8 |
| 20260906082034 | 28 | 211 | 4.8 | 11.3 | 0.00 | 0.00 | 0.00 | 55 | 1015.8 |
| 20260906081543 | 28 | 211 | 8.0 | 9.7 | 0.00 | 0.00 | 0.00 | 54 | 1015.8 |
| 20260906081032 | 29 | 171 | 4.8 | 8.0 | 0.00 | 0.00 | 0.00 | 51 | 1015.8 |
| 20260906080544 | 29 | 138 | 3.2 | 8.0 | 0.00 | 0.00 | 0.00 | 50 | 1015.8 |
| 20260906080042 | 30 | 150 | 3.2 | 8.0 | 0.00 | 0.00 | 0.00 | 47 | 1015.7 |
| 20260906075532 | 29 | 153 | 3.2 | 11.3 | 0.00 | 0.00 | 0.00 | 46 | 1015.7 |
| 20260906075031 | 30 | 156 | 3.2 | 11.3 | 0.00 | 0.00 | 0.00 | 47 | 1015.6 |
| 20260906074601 | 29 | 119 | 1.6 | 6.4 | 0.00 | 0.00 | 0.00 | 49 | 1015.6 |
| 20260906074027 | 29 | 145 | 1.6 | 6.4 | 0.00 | 0.00 | 0.00 | 49 | 1015.5 |
| 20260906073602 | 29 | 223 | 3.2 | 6.4 | 0.00 | 0.00 | 0.00 | 47 | 1015.5 |
| 20260906073027 | 29 | 132 | 3.2 | 6.4 | 0.00 | 0.00 | 0.00 | 44 | 1015.5 |
| 20260906072533 | 28 | 132 | 1.6 | 8.0 | 0.00 | 0.00 | 0.00 | 43 | 1015.5 |
| 20260906072027 | 28 | 159 | 0.0 | 6.4 | 0.00 | 0.00 | 0.00 | 45 | 1015.4 |
| 20260906071559 | 28 | 159 | 0.0 | 6.4 | 0.00 | 0.00 | 0.00 | 46 | 1015.4 |
| 20260906071030 | 28 | 159 | 3.2 | 4.8 | 0.00 | 0.00 | 0.00 | 49 | 1015.3 |
| 20260906070541 | 28 | 157 | 1.6 | 6.4 | 0.00 | 0.00 | 0.00 | 50 | 1015.4 |
| 20260906070033 | 28 | 155 | 3.2 | 6.4 | 0.00 | 0.00 | 0.00 | 52 | 1015.2 |
| 20260906065548 | 27 | 138 | 0.0 | 3.2 | 0.00 | 0.00 | 0.00 | 54 | 1015.1 |
| 20260906065028 | 27 | 135 | 0.0 | 4.8 | 0.00 | 0.00 | 0.00 | 53 | 1015.1 |
| 20260906064602 | 27 | 134 | 0.0 | 4.8 | 0.00 | 0.00 | 0.00 | 55 | 1015.1 |
| 20260906064030 | 27 | 125 | 1.6 | 6.4 | 0.00 | 0.00 | 0.00 | 55 | 1015.0 |
| 20260906063537 | 27 | 125 | 3.2 | 6.4 | 0.00 | 0.00 | 0.00 | 55 | 1015.0 |
| 20260906063027 | 27 | 125 | 1.6 | 6.4 | 0.00 | 0.00 | 0.00 | 56 | 1015.0 |
| 20260906062537 | 27 | 125 | 3.2 | 8.0 | 0.00 | 0.00 | 0.00 | 54 | 1015.0 |
| 20260906062106 | 27 | 137 | 3.2 | 6.4 | 0.00 | 0.00 | 0.00 | 51 | 1015.0 |
| 20260906061525 | 27 | 65 | 1.6 | 4.8 | 0.00 | 0.00 | 0.00 | 49 | 1015.0 |
| 20260906061045 | 27 | 65 | 0.0 | 3.2 | 0.00 | 0.00 | 0.00 | 48 | 1015.0 |
| 20260906060531 | 26 | 65 | 0.0 | 3.2 | 0.00 | 0.00 | 0.00 | 49 | 1015.0 |
| 20260906060042 | 27 | 65 | 0.0 | 1.6 | 0.00 | 0.00 | 0.00 | 51 | 1015.0 |
| 20260906055528 | 26 | 65 | 0.0 | 0.0 | 0.00 | 0.00 | 0.00 | 50 | 1014.9 |
| 20260906055042 | 26 | 65 | 0.0 | 3.2 | 0.00 | 0.00 | 0.00 | 49 | 1015.0 |
| 20260906054542 | 26 | 65 | 0.0 | 3.2 | 0.00 | 0.00 | 0.00 | 49 | 1014.9 |
| 20260906054031 | 26 | 44 | 0.0 | 3.2 | 0.00 | 0.00 | 0.00 | 48 | 1014.9 |
| 20260906053543 | 26 | 44 | 1.6 | 3.2 | 0.00 | 0.00 | 0.00 | 47 | 1014.9 |
| 20260906053033 | 26 | 44 | 0.0 | 0.0 | 0.00 | 0.00 | 0.00 | 46 | 1014.8 |
| 20260906052539 | 26 | 44 | 0.0 | 0.0 | 0.00 | 0.00 | 0.00 | 46 | 1014.9 |
| 20260906052027 | 26 | 44 | 0.0 | 0.0 | 0.00 | 0.00 | 0.00 | 46 | 1014.8 |
| 20260906051530 | 26 | 44 | 0.0 | 3.2 | 0.00 | 0.00 | 0.00 | 45 | 1014.9 |
| 20260906051044 | 26 | 44 | 0.0 | 4.8 | 0.00 | 0.00 | 0.00 | 44 | 1014.9 |
| 20260906050530 | 25 | 38 | 1.6 | 6.4 | 0.00 | 0.00 | 0.00 | 43 | 1014.8 |
| 20260906050046 | 25 | 36 | 3.2 | 6.4 | 0.00 | 0.00 | 0.00 | 44 | 1014.8 |
| 20260906045535 | 25 | 26 | 1.6 | 9.7 | 0.00 | 0.00 | 0.00 | 43 | 1014.8 |
| 20260906045058 | 25 | 24 | 4.8 | 9.7 | 0.00 | 0.00 | 0.00 | 44 | 1014.7 |
| 20260906044544 | 25 | 30 | 4.8 | 12.9 | 0.00 | 0.00 | 0.00 | 44 | 1014.6 |
| 20260906044030 | 25 | 44 | 6.4 | 12.9 | 0.00 | 0.00 | 0.00 | 44 | 1014.6 |
| 20260906043540 | 25 | 53 | 1.6 | 8.0 | 0.00 | 0.00 | 0.00 | 44 | 1014.6 |
| 20260906043034 | 25 | 27 | 3.2 | 9.7 | 0.00 | 0.00 | 0.00 | 44 | 1014.5 |
| 20260906042530 | 25 | 40 | 3.2 | 9.7 | 0.00 | 0.00 | 0.00 | 44 | 1014.4 |
| 20260906042029 | 25 | 58 | 4.8 | 12.9 | 0.00 | 0.00 | 0.00 | 44 | 1014.4 |
| 20260906041544 | 25 | 26 | 4.8 | 14.5 | 0.00 | 0.00 | 0.00 | 43 | 1014.3 |
| 20260906041030 | 25 | 56 | 8.0 | 14.5 | 0.00 | 0.00 | 0.00 | 43 | 1014.3 |
| 20260906040540 | 25 | 60 | 6.4 | 9.7 | 0.00 | 0.00 | 0.00 | 44 | 1014.3 |
| 20260906040040 | 25 | 18 | 4.8 | 8.0 | 0.00 | 0.00 | 0.00 | 44 | 1014.3 |
| 20260906035529 | 25 | 54 | 3.2 | 9.7 | 0.00 | 0.00 | 0.00 | 44 | 1014.3 |
| 20260906035041 | 25 | 11 | 4.8 | 12.9 | 0.00 | 0.00 | 0.00 | 44 | 1014.2 |
| 20260906034528 | 25 | 71 | 4.8 | 12.9 | 0.00 | 0.00 | 0.00 | 44 | 1014.2 |
| 20260906034032 | 25 | 38 | 3.2 | 9.7 | 0.00 | 0.00 | 0.00 | 43 | 1014.2 |
| 20260906033533 | 26 | 75 | 4.8 | 9.7 | 0.00 | 0.00 | 0.00 | 43 | 1014.1 |
| 20260906033035 | 25 | 83 | 4.8 | 9.7 | 0.00 | 0.00 | 0.00 | 43 | 1014.1 |
| 20260906032547 | 25 | 73 | 4.8 | 9.7 | 0.00 | 0.00 | 0.00 | 44 | 1014.1 |
| 20260906032041 | 25 | 52 | 3.2 | 9.7 | 0.00 | 0.00 | 0.00 | 43 | 1014.1 |
| 20260906031531 | 25 | 85 | 6.4 | 9.7 | 0.00 | 0.00 | 0.00 | 44 | 1014.1 |
| 20260906031040 | 25 | 71 | 4.8 | 9.7 | 0.00 | 0.00 | 0.00 | 44 | 1014.0 |
| 20260906030525 | 25 | 55 | 4.8 | 9.7 | 0.00 | 0.00 | 0.00 | 44 | 1014.0 |
| 20260906030042 | 25 | 71 | 4.8 | 11.3 | 0.00 | 0.00 | 0.00 | 44 | 1014.1 |
| 20260906025549 | 25 | 23 | 3.2 | 14.5 | 0.00 | 0.00 | 0.00 | 44 | 1014.0 |
| 20260906025036 | 25 | 30 | 6.4 | 12.9 | 0.00 | 0.00 | 0.00 | 44 | 1014.0 |
| 20260906024551 | 25 | 24 | 4.8 | 12.9 | 0.00 | 0.00 | 0.00 | 45 | 1014.1 |
| 20260906024031 | 25 | 24 | 6.4 | 11.3 | 0.00 | 0.00 | 0.00 | 45 | 1014.1 |
| 20260906023601 | 25 | 65 | 4.8 | 9.7 | 0.00 | 0.00 | 0.00 | 45 | 1014.1 |
| 20260906023029 | 25 | 21 | 3.2 | 8.0 | 0.00 | 0.00 | 0.00 | 45 | 1014.1 |
| 20260906022538 | 25 | 28 | 4.8 | 8.0 | 0.00 | 0.00 | 0.00 | 45 | 1014.1 |
| 20260906022027 | 25 | 36 | 3.2 | 11.3 | 0.00 | 0.00 | 0.00 | 45 | 1014.1 |
| 20260906021603 | 25 | 37 | 1.6 | 11.3 | 0.00 | 0.00 | 0.00 | 44 | 1014.0 |
| 20260906021043 | 26 | 87 | 1.6 | 9.7 | 0.00 | 0.00 | 0.00 | 44 | 1014.1 |
| 20260906020534 | 26 | 54 | 4.8 | 9.7 | 0.00 | 0.00 | 0.00 | 44 | 1014.1 |
| 20260906020037 | 26 | 69 | 0.0 | 9.7 | 0.00 | 0.00 | 0.00 | 44 | 1014.2 |
| 20260906015548 | 26 | 69 | 3.2 | 9.7 | 0.00 | 0.00 | 0.00 | 44 | 1014.2 |
| 20260906015039 | 26 | 20 | 1.6 | 8.0 | 0.00 | 0.00 | 0.00 | 44 | 1014.1 |
| 20260906014530 | 26 | 15 | 4.8 | 8.0 | 0.00 | 0.00 | 0.00 | 44 | 1014.2 |
| 20260906014034 | 26 | 17 | 4.8 | 11.3 | 0.00 | 0.00 | 0.00 | 45 | 1014.1 |
| 20260906013546 | 25 | 39 | 4.8 | 11.3 | 0.00 | 0.00 | 0.00 | 45 | 1014.2 |
| 20260906013032 | 26 | 27 | 3.2 | 9.7 | 0.00 | 0.00 | 0.00 | 44 | 1014.2 |
| 20260906012539 | 26 | 51 | 4.8 | 8.0 | 0.00 | 0.00 | 0.00 | 44 | 1014.2 |
| 20260906012102 | 26 | 48 | 1.6 | 8.0 | 0.00 | 0.00 | 0.00 | 44 | 1014.2 |
| 20260906011539 | 26 | 71 | 3.2 | 9.7 | 0.00 | 0.00 | 0.00 | 44 | 1014.2 |
| 20260906011028 | 26 | 40 | 4.8 | 9.7 | 0.00 | 0.00 | 0.00 | 44 | 1014.2 |
| 20260906010540 | 26 | 55 | 4.8 | 12.9 | 0.00 | 0.00 | 0.00 | 44 | 1014.2 |
| 20260906010039 | 26 | 67 | 4.8 | 14.5 | 0.00 | 0.00 | 0.00 | 43 | 1014.2 |
| 20260906005549 | 26 | 95 | 8.0 | 19.3 | 0.00 | 0.00 | 0.00 | 43 | 1014.1 |
| 20260906005044 | 26 | 21 | 6.4 | 19.3 | 0.00 | 0.00 | 0.00 | 43 | 1014.2 |
| 20260906004544 | 26 | 46 | 8.0 | 22.5 | 0.00 | 0.00 | 0.00 | 43 | 1014.2 |
| 20260906004045 | 26 | 26 | 9.7 | 19.3 | 0.00 | 0.00 | 0.00 | 43 | 1014.2 |
| 20260906003532 | 26 | 24 | 8.0 | 14.5 | 0.00 | 0.00 | 0.00 | 44 | 1014.2 |
| 20260906003033 | 26 | 44 | 9.7 | 17.7 | 0.00 | 0.00 | 0.00 | 44 | 1014.2 |
| 20260906002610 | 26 | 5 | 9.7 | 17.7 | 0.00 | 0.00 | 0.00 | 44 | 1014.2 |
| 20260906002048 | 26 | 350 | 8.0 | 17.7 | 0.00 | 0.00 | 0.00 | 44 | 1014.3 |
| 20260906001536 | 26 | 5 | 6.4 | 14.5 | 0.00 | 0.00 | 0.00 | 44 | 1014.3 |
| 20260906001051 | 26 | 20 | 6.4 | 17.7 | 0.00 | 0.00 | 0.00 | 44 | 1014.3 |
| 20260906000546 | 26 | 5 | 9.7 | 17.7 | 0.00 | 0.00 | 0.00 | 44 | 1014.3 |
| 20260906000046 | 26 | 34 | 8.0 | 14.5 | 0.00 | 0.00 | 0.00 | 44 | 1014.3 |
| 20260905235535 | 26 | 33 | 8.0 | 16.1 | 0.00 | 0.00 | 0.00 | 44 | 1014.4 |
| 20260905235039 | 26 | 21 | 8.0 | 16.1 | 0.00 | 0.00 | 0.00 | 43 | 1014.4 |
| 20260905234530 | 26 | 55 | 6.4 | 16.1 | 0.00 | 0.00 | 0.00 | 43 | 1014.5 |
| 20260905234040 | 26 | 32 | 9.7 | 17.7 | 0.00 | 0.00 | 0.00 | 43 | 1014.5 |
| 20260905233554 | 26 | 24 | 6.4 | 14.5 | 0.00 | 0.00 | 0.00 | 43 | 1014.4 |
| 20260905233042 | 26 | 52 | 8.0 | 16.1 | 0.00 | 0.00 | 0.00 | 43 | 1014.4 |
| 20260905232532 | 26 | 30 | 6.4 | 16.1 | 0.00 | 0.00 | 0.00 | 43 | 1014.4 |
| 20260905232106 | 26 | 19 | 8.0 | 14.5 | 0.00 | 0.00 | 0.00 | 43 | 1014.5 |
| 20260905231535 | 26 | 355 | 6.4 | 12.9 | 0.00 | 0.00 | 0.00 | 43 | 1014.5 |
| 20260905231049 | 26 | 19 | 6.4 | 14.5 | 0.00 | 0.00 | 0.00 | 43 | 1014.6 |
| 20260905230544 | 26 | 51 | 4.8 | 16.1 | 0.00 | 0.00 | 0.00 | 43 | 1014.6 |
| 20260905230052 | 26 | 32 | 8.0 | 12.9 | 0.00 | 0.00 | 0.00 | 43 | 1014.6 |
| 20260905225546 | 26 | 15 | 4.8 | 11.3 | 0.00 | 0.00 | 0.00 | 43 | 1014.7 |
| 20260905225030 | 26 | 65 | 4.8 | 12.9 | 0.00 | 0.00 | 0.00 | 43 | 1014.6 |
| 20260905224538 | 26 | 44 | 6.4 | 12.9 | 0.00 | 0.00 | 0.00 | 43 | 1014.6 |
| 20260905224028 | 26 | 53 | 6.4 | 11.3 | 0.00 | 0.00 | 0.00 | 43 | 1014.6 |
| 20260905223541 | 26 | 30 | 4.8 | 9.7 | 0.00 | 0.00 | 0.00 | 43 | 1014.8 |
| 20260905223039 | 26 | 32 | 4.8 | 9.7 | 0.00 | 0.00 | 0.00 | 43 | 1014.7 |
| 20260905222552 | 27 | 29 | 3.2 | 9.7 | 0.00 | 0.00 | 0.00 | 43 | 1014.7 |
| 20260905222036 | 27 | 32 | 4.8 | 11.3 | 0.00 | 0.00 | 0.00 | 43 | 1014.7 |
| 20260905221610 | 27 | 12 | 4.8 | 11.3 | 0.00 | 0.00 | 0.00 | 43 | 1014.7 |
| 20260905221038 | 27 | 31 | 6.4 | 12.9 | 0.00 | 0.00 | 0.00 | 43 | 1014.7 |
| 20260905220552 | 27 | 23 | 6.4 | 14.5 | 0.00 | 0.00 | 0.00 | 43 | 1014.7 |
| 20260905220033 | 27 | 42 | 6.4 | 14.5 | 0.00 | 0.00 | 0.00 | 43 | 1014.7 |
| 20260905215542 | 27 | 27 | 6.4 | 11.3 | 0.00 | 0.00 | 0.00 | 43 | 1014.7 |
| 20260905215049 | 27 | 360 | 4.8 | 9.7 | 0.00 | 0.00 | 0.00 | 43 | 1014.7 |
| 20260905214540 | 27 | 42 | 4.8 | 9.7 | 0.00 | 0.00 | 0.00 | 43 | 1014.8 |
| 20260905214034 | 27 | 58 | 1.6 | 11.3 | 0.00 | 0.00 | 0.00 | 43 | 1014.9 |
| 20260905213549 | 27 | 24 | 3.2 | 9.7 | 0.00 | 0.00 | 0.00 | 43 | 1014.9 |
| 20260905213054 | 27 | 17 | 4.8 | 9.7 | 0.00 | 0.00 | 0.00 | 43 | 1014.9 |
| 20260905212540 | 27 | 355 | 4.8 | 11.3 | 0.00 | 0.00 | 0.00 | 42 | 1014.9 |
| 20260905212044 | 27 | 67 | 4.8 | 12.9 | 0.00 | 0.00 | 0.00 | 42 | 1014.8 |
| 20260905211558 | 27 | 21 | 6.4 | 12.9 | 0.00 | 0.00 | 0.00 | 42 | 1014.8 |
| 20260905211045 | 27 | 61 | 6.4 | 12.9 | 0.00 | 0.00 | 0.00 | 43 | 1014.8 |
| 20260905210605 | 27 | 24 | 6.4 | 11.3 | 0.00 | 0.00 | 0.00 | 43 | 1014.8 |
| 20260905210050 | 27 | 39 | 3.2 | 11.3 | 0.00 | 0.00 | 0.00 | 43 | 1014.9 |
| 20260905205552 | 28 | 34 | 8.0 | 11.3 | 0.00 | 0.00 | 0.00 | 42 | 1015.0 |
| 20260905205046 | 28 | 36 | 4.8 | 12.9 | 0.00 | 0.00 | 0.00 | 42 | 1014.9 |
| 20260905204540 | 28 | 43 | 6.4 | 12.9 | 0.00 | 0.00 | 0.00 | 42 | 1014.9 |
| 20260905204029 | 28 | 347 | 8.0 | 12.9 | 0.00 | 0.00 | 0.00 | 42 | 1014.9 |
| 20260905203541 | 28 | 15 | 4.8 | 11.3 | 0.00 | 0.00 | 0.00 | 42 | 1014.9 |
| 20260905203103 | 28 | 355 | 6.4 | 12.9 | 0.00 | 0.00 | 0.00 | 42 | 1015.0 |
| 20260905202555 | 28 | 50 | 8.0 | 12.9 | 0.00 | 0.00 | 0.00 | 42 | 1014.9 |
| 20260905202037 | 28 | 55 | 4.8 | 12.9 | 0.00 | 0.00 | 0.00 | 43 | 1014.9 |
| 20260905201551 | 28 | 79 | 8.0 | 14.5 | 0.00 | 0.00 | 0.00 | 44 | 1014.9 |
| 20260905201048 | 28 | 40 | 8.0 | 14.5 | 0.00 | 0.00 | 0.00 | 44 | 1014.9 |
| 20260905200540 | 28 | 27 | 8.0 | 14.5 | 0.00 | 0.00 | 0.00 | 44 | 1015.0 |
| 20260905200033 | 28 | 12 | 8.0 | 12.9 | 0.00 | 0.00 | 0.00 | 44 | 1014.9 |
| 20260905195541 | 28 | 322 | 4.8 | 8.0 | 0.00 | 0.00 | 0.00 | 44 | 1015.0 |
| 20260905195046 | 28 | 13 | 3.2 | 8.0 | 0.00 | 0.00 | 0.00 | 44 | 1015.0 |
| 20260905194550 | 28 | 30 | 3.2 | 11.3 | 0.00 | 0.00 | 0.00 | 44 | 1015.0 |
| 20260905194041 | 28 | 35 | 4.8 | 14.5 | 0.00 | 0.00 | 0.00 | 44 | 1015.0 |
| 20260905193534 | 28 | 16 | 3.2 | 14.5 | 0.00 | 0.00 | 0.00 | 44 | 1015.0 |
| 20260905193054 | 28 | 38 | 3.2 | 11.3 | 0.00 | 0.00 | 0.00 | 44 | 1015.0 |
| 20260905192542 | 28 | 21 | 3.2 | 8.0 | 0.00 | 0.00 | 0.00 | 44 | 1015.0 |
| 20260905192033 | 28 | 11 | 3.2 | 9.7 | 0.00 | 0.00 | 0.00 | 44 | 1015.0 |
| 20260905191542 | 28 | 22 | 6.4 | 12.9 | 0.00 | 0.00 | 0.00 | 44 | 1015.0 |
| 20260905191032 | 28 | 80 | 4.8 | 16.1 | 0.00 | 0.00 | 0.00 | 44 | 1014.9 |
| 20260905190548 | 28 | 86 | 9.7 | 14.5 | 0.00 | 0.00 | 0.00 | 44 | 1014.9 |
| 20260905190034 | 28 | 13 | 8.0 | 14.5 | 0.00 | 0.00 | 0.00 | 43 | 1014.9 |
| 20260905185547 | 29 | 5 | 4.8 | 9.7 | 0.00 | 0.00 | 0.00 | 43 | 1014.8 |
| 20260905185034 | 29 | 20 | 4.8 | 9.7 | 0.00 | 0.00 | 0.00 | 42 | 1014.8 |
| 20260905184545 | 29 | 346 | 3.2 | 11.3 | 0.00 | 0.00 | 0.00 | 42 | 1014.7 |
| 20260905184034 | 30 | 38 | 6.4 | 11.3 | 0.00 | 0.00 | 0.00 | 41 | 1014.6 |
| 20260905183543 | 30 | 15 | 4.8 | 11.3 | 0.00 | 0.00 | 0.00 | 40 | 1014.6 |
| 20260905183036 | 30 | 360 | 3.2 | 8.0 | 0.00 | 0.00 | 0.00 | 39 | 1014.6 |
| 20260905182549 | 30 | 5 | 4.8 | 8.0 | 0.00 | 0.00 | 0.00 | 39 | 1014.5 |
| 20260905182055 | 30 | 5 | 3.2 | 8.0 | 0.00 | 0.00 | 0.00 | 39 | 1014.4 |
| 20260905181542 | 30 | 5 | 4.8 | 8.0 | 0.00 | 0.00 | 0.00 | 39 | 1014.3 |
| 20260905181030 | 30 | 318 | 3.2 | 4.8 | 0.00 | 0.00 | 0.00 | 39 | 1014.3 |
| 20260905180539 | 30 | 291 | 1.6 | 4.8 | 0.00 | 0.00 | 0.00 | 39 | 1014.3 |
| 20260905180053 | 30 | 291 | 1.6 | 8.0 | 0.00 | 0.00 | 0.00 | 39 | 1014.3 |
| 20260905175547 | 30 | 291 | 1.6 | 8.0 | 0.00 | 0.00 | 0.00 | 39 | 1014.3 |
| 20260905175031 | 30 | 286 | 1.6 | 6.4 | 0.00 | 0.00 | 0.00 | 39 | 1014.2 |
| 20260905174540 | 30 | 286 | 1.6 | 6.4 | 0.00 | 0.00 | 0.00 | 38 | 1014.2 |
| 20260905174048 | 30 | 275 | 1.6 | 8.0 | 0.00 | 0.00 | 0.00 | 38 | 1014.2 |
| 20260905173533 | 30 | 262 | 4.8 | 9.7 | 0.00 | 0.00 | 0.00 | 37 | 1014.1 |
| 20260905173050 | 31 | 233 | 3.2 | 9.7 | 0.00 | 0.00 | 0.00 | 35 | 1014.0 |
| 20260905172549 | 31 | 355 | 1.6 | 11.3 | 0.00 | 0.00 | 0.00 | 34 | 1014.0 |
| 20260905172038 | 31 | 355 | 3.2 | 11.3 | 0.00 | 0.00 | 0.00 | 34 | 1013.9 |
| 20260905171545 | 31 | 296 | 4.8 | 9.7 | 0.00 | 0.00 | 0.00 | 35 | 1013.8 |
| 20260905171049 | 31 | 246 | 3.2 | 9.7 | 0.00 | 0.00 | 0.00 | 35 | 1013.7 |
| 20260905170545 | 31 | 217 | 6.4 | 9.7 | 0.00 | 0.00 | 0.00 | 35 | 1013.7 |
| 20260905170034 | 31 | 244 | 3.2 | 6.4 | 0.00 | 0.10 | 0.00 | 35 | 1013.7 |
| 20260905165545 | 31 | 252 | 3.2 | 6.4 | 0.00 | 0.10 | 0.00 | 34 | 1013.7 |
| 20260905165032 | 31 | 327 | 1.6 | 11.3 | 0.00 | 0.10 | 0.00 | 35 | 1013.7 |
| 20260905164548 | 31 | 34 | 6.4 | 12.9 | 0.00 | 0.10 | 0.00 | 34 | 1013.7 |
| 20260905164037 | 32 | 279 | 1.6 | 12.9 | 0.00 | 0.10 | 0.00 | 33 | 1013.7 |
| 20260905163552 | 32 | 313 | 4.8 | 14.5 | 0.00 | 0.10 | 0.00 | 33 | 1013.6 |
| 20260905163036 | 32 | 280 | 6.4 | 14.5 | 0.00 | 0.10 | 0.00 | 33 | 1013.5 |
| 20260905162548 | 32 | 305 | 8.0 | 19.3 | 0.00 | 0.10 | 0.00 | 33 | 1013.5 |
| 20260905162036 | 32 | 311 | 6.4 | 19.3 | 0.00 | 0.10 | 0.00 | 33 | 1013.5 |
| 20260905161543 | 32 | 306 | 8.0 | 20.9 | 0.00 | 0.10 | 0.00 | 32 | 1013.5 |
| 20260905161033 | 32 | 313 | 9.7 | 19.3 | 0.00 | 0.10 | 0.00 | 32 | 1013.5 |
| 20260905160542 | 32 | 287 | 12.9 | 19.3 | 0.00 | 0.10 | 0.00 | 31 | 1013.6 |
| 20260905160034 | 32 | 315 | 8.0 | 19.3 | 0.00 | 0.10 | 0.00 | 32 | 1013.7 |
| 20260905155547 | 32 | 312 | 8.0 | 19.3 | 0.00 | 0.10 | 0.00 | 31 | 1013.7 |
| 20260905155038 | 33 | 312 | 9.7 | 17.7 | 0.00 | 0.10 | 0.00 | 31 | 1013.7 |
| 20260905154552 | 33 | 360 | 8.0 | 14.5 | 0.00 | 0.10 | 0.00 | 32 | 1013.8 |
| 20260905154056 | 32 | 78 | 1.6 | 11.3 | 0.00 | 0.10 | 0.00 | 35 | 1013.8 |
| 20260905153544 | 32 | 242 | 4.8 | 8.0 | 0.00 | 0.10 | 0.00 | 34 | 1013.8 |
| 20260905153055 | 32 | 262 | 4.8 | 8.0 | 0.00 | 0.10 | 0.00 | 35 | 1013.8 |
| 20260905152546 | 32 | 181 | 3.2 | 11.3 | 0.00 | 0.10 | 0.00 | 35 | 1013.8 |
| 20260905152034 | 32 | 205 | 6.4 | 11.3 | 0.00 | 0.10 | 0.00 | 35 | 1013.7 |
| 20260905151543 | 32 | 223 | 4.8 | 11.3 | 0.00 | 0.10 | 0.00 | 34 | 1013.8 |
| 20260905151036 | 33 | 193 | 4.8 | 11.3 | 0.00 | 0.10 | 0.00 | 33 | 1013.7 |
| 20260905150544 | 33 | 144 | 4.8 | 6.4 | 0.00 | 0.10 | 0.00 | 33 | 1013.7 |
| 20260905150033 | 33 | 209 | 3.2 | 8.0 | 0.00 | 1.30 | 0.00 | 34 | 1013.7 |
| 20260905145547 | 33 | 214 | 3.2 | 11.3 | 0.00 | 1.30 | 0.00 | 34 | 1013.6 |
| 20260905145040 | 33 | 121 | 6.4 | 11.3 | 0.00 | 1.30 | 0.00 | 33 | 1013.6 |
| 20260905144631 | 33 | 190 | 8.0 | 11.3 | 0.00 | 1.30 | 0.00 | 34 | 1013.6 |
| 20260905144031 | 33 | 184 | 4.8 | 9.7 | 0.00 | 1.30 | 0.00 | 33 | 1013.5 |
| 20260905143543 | 33 | 218 | 3.2 | 11.3 | 0.00 | 1.30 | 0.00 | 35 | 1013.6 |
| 20260905143029 | 32 | 200 | 8.0 | 11.3 | 0.00 | 1.30 | 0.00 | 38 | 1013.6 |
| 20260905142545 | 33 | 231 | 6.4 | 9.7 | 0.00 | 1.30 | 0.00 | 39 | 1013.5 |
| 20260905142031 | 33 | 158 | 4.8 | 12.9 | 0.00 | 1.30 | 0.00 | 34 | 1013.6 |
| 20260905141539 | 33 | 205 | 8.0 | 12.9 | 0.00 | 1.30 | 0.00 | 36 | 1013.7 |
| 20260905141028 | 32 | 192 | 6.4 | 12.9 | 0.00 | 1.30 | 0.00 | 37 | 1013.6 |
| 20260905140546 | 33 | 198 | 8.0 | 14.5 | 0.00 | 1.30 | 0.00 | 35 | 1013.6 |
| 20260905140038 | 33 | 197 | 8.0 | 14.5 | 0.00 | 1.50 | 0.00 | 34 | 1013.5 |
| 20260905135550 | 33 | 155 | 8.0 | 16.1 | 0.00 | 1.50 | 0.00 | 35 | 1013.5 |
| 20260905135054 | 33 | 132 | 8.0 | 14.5 | 0.00 | 1.50 | 0.00 | 36 | 1013.5 |
| 20260905134527 | 33 | 177 | 8.0 | 14.5 | 0.00 | 1.50 | 0.00 | 37 | 1013.5 |
| 20260905134042 | 33 | 184 | 8.0 | 16.1 | 0.00 | 1.50 | 0.00 | 37 | 1013.5 |
| 20260905133542 | 33 | 178 | 8.0 | 19.3 | 0.00 | 1.50 | 0.00 | 38 | 1013.5 |
| 20260905133038 | 33 | 161 | 8.0 | 19.3 | 0.00 | 1.50 | 0.00 | 39 | 1013.6 |
| 20260905132558 | 33 | 175 | 9.7 | 17.7 | 0.00 | 1.50 | 0.00 | 39 | 1013.6 |
| 20260905132043 | 33 | 167 | 8.0 | 17.7 | 0.00 | 1.50 | 0.00 | 40 | 1013.6 |
| 20260905131543 | 33 | 160 | 6.4 | 16.1 | 0.00 | 1.50 | 0.00 | 38 | 1013.5 |
| 20260905131103 | 33 | 173 | 6.4 | 22.5 | 0.00 | 1.50 | 0.00 | 38 | 1013.7 |
| 20260905130554 | 33 | 178 | 8.0 | 22.5 | 0.00 | 1.50 | 0.00 | 37 | 1013.6 |
| 20260905130105 | 33 | 163 | 9.7 | 20.9 | 0.00 | 1.50 | 0.00 | 37 | 1013.6 |
| 20260905125559 | 33 | 192 | 9.7 | 19.3 | 0.00 | 1.50 | 0.00 | 36 | 1013.6 |
| 20260905125046 | 33 | 171 | 9.7 | 20.9 | 0.00 | 1.50 | 0.00 | 36 | 1013.6 |
| 20260905124533 | 33 | 135 | 11.3 | 20.9 | 0.00 | 1.50 | 0.00 | 36 | 1013.7 |
| 20260905124047 | 33 | 204 | 8.0 | 22.5 | 0.00 | 1.50 | 0.00 | 37 | 1013.7 |
| 20260905123542 | 33 | 196 | 8.0 | 22.5 | 0.00 | 1.50 | 0.00 | 38 | 1013.7 |
| 20260905123035 | 33 | 192 | 6.4 | 22.5 | 0.00 | 1.50 | 0.00 | 38 | 1013.7 |
| 20260905122540 | 33 | 161 | 9.7 | 20.9 | 0.00 | 1.50 | 0.00 | 38 | 1013.8 |
| 20260905122028 | 33 | 188 | 8.0 | 17.7 | 0.00 | 1.50 | 0.00 | 38 | 1013.8 |
| 20260905121542 | 33 | 183 | 4.8 | 17.7 | 0.00 | 1.50 | 0.00 | 37 | 1013.9 |
| 20260905121025 | 33 | 175 | 8.0 | 16.1 | 0.00 | 1.50 | 0.00 | 37 | 1013.9 |
| 20260905120546 | 33 | 193 | 8.0 | 16.1 | 0.00 | 1.50 | 0.00 | 38 | 1014.0 |
| 20260905120043 | 32 | 205 | 8.0 | 14.5 | 0.00 | 1.50 | 0.00 | 40 | 1014.0 |
| 20260905115533 | 32 | 143 | 8.0 | 17.7 | 0.00 | 1.50 | 0.00 | 40 | 1014.0 |
| 20260905115043 | 32 | 186 | 8.0 | 24.1 | 0.00 | 1.50 | 0.00 | 40 | 1014.0 |
| 20260905114545 | 32 | 133 | 11.3 | 24.1 | 0.00 | 1.50 | 0.00 | 40 | 1014.1 |
| 20260905114049 | 32 | 205 | 12.9 | 20.9 | 0.00 | 1.50 | 0.00 | 40 | 1014.1 |
| 20260905113536 | 32 | 144 | 6.4 | 20.9 | 0.00 | 1.50 | 0.00 | 41 | 1014.1 |
| 20260905113030 | 32 | 184 | 9.7 | 24.1 | 0.00 | 1.50 | 0.00 | 44 | 1014.2 |
| 20260905112548 | 32 | 138 | 9.7 | 24.1 | 0.00 | 1.50 | 0.00 | 45 | 1014.2 |
| 20260905112042 | 32 | 197 | 8.0 | 20.9 | 0.00 | 1.50 | 0.00 | 43 | 1014.2 |
| 20260905111558 | 32 | 162 | 9.7 | 20.9 | 0.00 | 1.50 | 0.00 | 43 | 1014.1 |
| 20260905111102 | 32 | 176 | 9.7 | 22.5 | 0.00 | 1.50 | 0.00 | 45 | 1014.1 |
| 20260905110534 | 32 | 179 | 11.3 | 22.5 | 0.00 | 1.50 | 0.00 | 44 | 1014.2 |
| 20260905110046 | 32 | 186 | 14.5 | 22.5 | 0.00 | 1.50 | 0.00 | 41 | 1014.1 |
| 20260905105532 | 33 | 128 | 8.0 | 20.9 | 0.00 | 1.50 | 0.00 | 40 | 1014.2 |
| 20260905105103 | 33 | 163 | 8.0 | 22.5 | 0.00 | 1.50 | 0.00 | 38 | 1014.1 |
| 20260905104531 | 33 | 157 | 12.9 | 22.5 | 0.00 | 1.50 | 0.00 | 38 | 1014.2 |
| 20260905104031 | 35 | 171 | 6.4 | 16.1 | 0.00 | 1.50 | 0.00 | 24 | 1013.9 |
| 20260905103539 | 35 | 88 | 4.8 | 11.3 | 0.00 | 1.50 | 0.00 | 24 | 1013.9 |
| 20260905103026 | 35 | 137 | 4.8 | 17.7 | 0.00 | 1.50 | 0.00 | 24 | 1013.9 |
| 20260905102539 | 35 | 72 | 3.2 | 19.3 | 0.00 | 1.50 | 0.00 | 24 | 1014.0 |
| 20260905102034 | 35 | 89 | 9.7 | 17.7 | 0.00 | 1.50 | 0.00 | 24 | 1014.1 |
| 20260905101549 | 34 | 18 | 6.4 | 16.1 | 0.00 | 1.50 | 0.00 | 25 | 1014.0 |
| 20260905101037 | 35 | 41 | 8.0 | 17.7 | 0.00 | 1.50 | 0.00 | 24 | 1014.2 |
| 20260905100551 | 35 | 130 | 1.6 | 16.1 | 0.00 | 1.50 | 0.00 | 24 | 1014.1 |
| 20260905100034 | 35 | 119 | 4.8 | 16.1 | 0.00 | 1.50 | 0.00 | 25 | 1014.3 |
| 20260905095548 | 35 | 18 | 4.8 | 11.3 | 0.00 | 1.50 | 0.00 | 25 | 1014.3 |
| 20260905095034 | 34 | 267 | 1.6 | 12.9 | 0.00 | 1.50 | 0.00 | 26 | 1014.3 |
| 20260905094545 | 35 | 336 | 6.4 | 17.7 | 0.00 | 1.50 | 0.00 | 25 | 1014.4 |
| 20260905094041 | 35 | 51 | 11.3 | 17.7 | 0.00 | 1.50 | 0.00 | 25 | 1014.3 |
| 20260905093530 | 34 | 82 | 4.8 | 20.9 | 0.00 | 1.50 | 0.00 | 26 | 1014.3 |
| 20260905093033 | 34 | 30 | 8.0 | 25.7 | 0.00 | 1.50 | 0.00 | 25 | 1014.4 |
| 20260905092550 | 34 | 72 | 17.7 | 25.7 | 0.00 | 1.50 | 0.00 | 25 | 1014.5 |
| 20260905092037 | 34 | 36 | 11.3 | 17.7 | 0.00 | 1.50 | 0.00 | 26 | 1014.6 |
| 20260905091547 | 33 | 56 | 8.0 | 22.5 | 0.00 | 1.50 | 0.00 | 26 | 1014.6 |
| 20260905091043 | 33 | 35 | 8.0 | 22.5 | 0.00 | 1.50 | 0.00 | 26 | 1014.5 |